Regional Weather Roundup
Issued by NWS

Home | Current Version | Previous Version | Text Only | Print | Product List | Glossary Off
Versions: 1 2 3 4 5 6 7 8 9 10 11 12 13 14 15 16 17 18 19 20 21 22 23 24 25 26 27 28 29 30 31 32 33 34 35 36 37 38 39 40 41 42 43 44 45 46 47 48 49 50

987
ASUS43 KDTX 280810
RWRMI
MICHIGAN HOURLY REGIONAL WEATHER ROUNDUP
NATIONAL WEATHER SERVICE DETROIT/PONTIAC MI
400 AM EDT FRI JUL 28 2017

NOTE: "FAIR" INDICATES FEW OR NO CLOUDS BELOW 12,000 FEET WITH NO
SIGNIFICANT WEATHER AND/OR OBSTRUCTION TO VISIBILITY.

MIZ047>049-052>055-059>063-066>070-074>076-081>083-280900-
SOUTHEAST LOWER MICHIGAN

CITY           SKY/WX    TMP DP  RH WIND       PRES   REMARKS
ADRIAN         PTCLDY    64  59  83 NE8       29.94S
ALMA           PTCLDY    59  57  95 W6        29.99R
ANN ARBOR      MOCLDY    62  59  90 N6        29.93F
BAD AXE        PTCLDY    59  58  96 CALM      29.98S
CARO           PTCLDY    58  56  95 CALM      29.96S
DETROIT CITY   MOCLDY    65  61  87 N8        29.92F
DETROIT        MOCLDY    65  60  84 N7        29.93F
FLINT          PTCLDY    61  58  90 NE5       29.96S
GROSSE ILE     MOCLDY    66  61  83 N7        29.91F
HILLSDALE      MOCLDY    64  59  82 NE7       29.94R
HOWELL         PTCLDY    61  59  93 CALM      29.95S

CITY           SKY/WX    TMP DP  RH WIND       PRES   REMARKS
JACKSON        LGT RAIN  64  59  83 NE6       29.95S
LAMBERTVILLE   PTCLDY    64  59  83 CALM      29.92R
LANSING        PTCLDY    62  57  83 NE3       29.97S
LAPEER         FAIR      58  57  97 CALM      29.96F
MASON          PTCLDY    61  59  95 CALM      29.96S
MONROE         MOCLDY    63  60  90 N3        29.91S
MT. CLEMENS    MOCLDY    62  62 100 N6        29.91F
PONTIAC        CLOUDY    63  60  90 N6        29.93F
PORT HOPE        N/A     68  62  81 NE12      29.96S
PORT HURON     MOCLDY    64  63  94 N5        29.94S
TRI CITIES     PTCLDY    62  61  96 N7        29.98S
MIDLAND        FAIR      57  57 100 CALM      29.98R
TROY           MOCLDY    65  60  84 N5        29.95S
SAGINAW HB     PTCLDY    59  57  94 CALM      29.96F
$$
MIZ043>046-050>051-056>058-064>065-071>073-077>080-280900-
SOUTHWEST LOWER MICHIGAN

CITY           SKY/WX    TMP DP  RH WIND       PRES   REMARKS
BATTLE CREEK   MOCLDY    65  61  87 NE7       29.96S
BENTON HARBOR  MOCLDY    68  60  75 NE8       29.93S
BIG RAPIDS     MOCLDY    60  58  92 CALM      29.99S
COLDWATER      CLOUDY    68  62  81 NE8       29.94R
FREMONT        MOCLDY    64  60  88 E3        29.98S
HOLLAND        MOCLDY    68  58  70 E7        29.97R
GRAND RAPIDS   MOCLDY    65  60  84 NE7       29.97S
IONIA          CLOUDY    63  58  86 NE5       29.97R
KALAMAZOO      PTCLDY    67  59  75 NE7       29.96R
LUDINGTON      CLOUDY    61  58  91 N3        30.00S
MARSHALL       PTCLDY    64  64  98 NE3       29.95S
MOUNT PLEASANT CLOUDY    61  59  92 CALM      29.99R
MUSKEGON       CLEAR     66  59  78 NE5       29.98R
SOUTH HAVEN    MOCLDY    66  62  89 CALM      29.94S
$$
MIZ016>042-280900-
NORTHERN LOWER MICHIGAN

CITY           SKY/WX    TMP DP  RH WIND       PRES   REMARKS
ALPENA         CLOUDY    60  59  96 CALM      30.01S
BEAVER ISLAND  MOCLDY    60  57  90 E5        30.03S
BELLAIRE       CLOUDY    57  55  94 CALM      30.02F
CADILLAC       CLOUDY    59  55  85 CALM      30.02R
CHARLEVOIX     MOCLDY    62  57  85 E3        30.05S
FRANKFORT      CLOUDY    65  62  88 NE7       30.02S
GAYLORD        CLOUDY    61  53  75 VRB5      30.05R
GRAYLING       CLOUDY    55  53  94 CALM      30.03R
HARBOR SPRINGS PTCLDY    59  55  88 N3        30.03S
HOUGHTON LAKE  CLOUDY    57  55  93 NE3       30.02R
MANISTEE       CLOUDY    60  57  89 CALM      30.01R
OSCODA         MOCLDY    59  57  94 CALM      29.99R
PELLSTON       PTCLDY    55  54  96 CALM      30.04R
ROGERS CITY    CLOUDY    65  59  81 CALM      30.04R
TRAVERSE CITY  CLOUDY    61  58  90 CALM      30.01R
$$
MIZ007>008-015-280900-
EASTERN UPPER MICHIGAN

CITY           SKY/WX    TMP DP  RH WIND       PRES   REMARKS
KINROSS        PTCLDY    60  55  83 NE6       30.05S
MACKINAC ISLAN PTCLDY    60  60 100 NE8       30.04R
NEWBERRY       CLOUDY    53  53  97 N5        30.06R
S. S. MARIE    MOCLDY    63  53  70 E3        30.05R
MUNISING         N/A     60  56  86 N6        30.07R
$$
MIZ004>006-011>014-085-280900-
CENTRAL UPPER MICHIGAN

CITY           SKY/WX    TMP DP  RH WIND       PRES   REMARKS
MANISTIQUE     CLOUDY    55  52  89 N8        30.03S
ESCANABA       MOCLDY    57  53  86 N5        30.05S
MENOMINEE      CLEAR     57  53  86 NW6       30.06S
SAWYER-GWINN   PTCLDY    60  53  77 N10       30.09S
$$
MIZ001>003-009>011-084-280900-
WESTERN UPPER MICHIGAN

CITY           SKY/WX    TMP DP  RH WIND       PRES   REMARKS
HOUGHTON       CLEAR     58  50  75 N3        30.09R
COPPER HARBOR    N/A     55  52  89 SW6       30.09R
IRONWOOD       FOG       52  52 100 CALM      30.11S VSB 3/4
$$

ABBREVIATIONS USED IN REMARKS
   TC - TEMPERATURE IN CELSIUS
  WCI - WIND CHILL INDEX
   HX - HEAT INDEX
  VSB - VISIBILITY





USA.gov is the U.S. government's official web portal to all federal, state and local government web resources and services.